CW3077 Weather Reports


Display with metric or nautical units.
time (UTC)temp
F
wind
direction
speed
MPH
gust
MPH
rain 1hr
in
rain 24hr
in
rain mn
in
humidity
%
barometer
mb
20260903212015 97 113 7.0 15.0 0.00 0.01 0.00 50 1012.2
20260903211515 97 90 8.0 15.0 0.00 0.01 0.00 50 1012.2
20260903211015 97 90 9.0 18.0 0.00 0.01 0.00 50 1012.2
20260903210535 97 90 7.0 15.0 0.00 0.01 0.00 50 1012.3
20260903210015 96 90 8.0 16.0 0.00 0.01 0.00 52 1012.3
20260903205515 96 90 8.0 16.0 0.00 0.01 0.00 52 1012.4
20260903205015 96 90 8.0 16.0 0.00 0.01 0.00 51 1012.5
20260903204535 97 90 8.0 16.0 0.00 0.01 0.00 50 1012.6
20260903204035 97 90 9.0 15.0 0.00 0.01 0.00 50 1012.7
20260903203515 96 90 9.0 21.0 0.00 0.01 0.00 51 1012.6
20260903203035 96 113 6.0 14.0 0.00 0.01 0.00 50 1012.8
20260903202516 97 135 6.0 12.0 0.00 0.01 0.00 49 1013.0
20260903202055 98 113 7.0 16.0 0.00 0.01 0.00 49 1013.2
20260903201515 98 135 6.0 15.0 0.00 0.01 0.00 49 1013.0
20260903201015 98 90 6.0 16.0 0.00 0.01 0.00 49 1013.0
20260903200515 98 135 5.0 10.0 0.00 0.01 0.00 48 1013.1
20260903200015 97 135 6.0 15.0 0.00 0.01 0.00 48 1013.1
20260903195537 97 90 5.0 14.0 0.00 0.01 0.00 48 1013.2
20260903195015 96 158 3.0 10.0 0.00 0.01 0.00 48 1013.2
20260903194535 97 158 3.0 11.0 0.00 0.01 0.00 48 1013.2
20260903194035 95 225 3.0 8.0 0.00 0.01 0.00 52 1013.3
20260903193515 94 158 1.0 8.0 0.00 0.01 0.00 53 1013.2
20260903193035 94 158 3.0 8.0 0.00 0.01 0.00 53 1013.3
20260903192515 94 90 4.0 8.0 0.00 0.01 0.00 54 1013.4
20260903192015 94 203 3.0 8.0 0.00 0.01 0.00 51 1013.5
20260903191515 94 203 3.0 10.0 0.00 0.01 0.00 54 1013.6
20260903191035 94 180 3.0 10.0 0.00 0.01 0.00 53 1013.7
20260903190517 95 180 2.0 7.0 0.00 0.01 0.00 52 1013.6
20260903190017 94 158 3.0 8.0 0.00 0.01 0.00 52 1013.7
20260903185517 94 135 3.0 6.0 0.00 0.01 0.00 53 1013.8
20260903185017 93 158 3.0 7.0 0.00 0.01 0.00 54 1013.9
20260903184515 93 135 1.0 7.0 0.00 0.01 0.00 54 1014.1
20260903184017 93 135 4.0 8.0 0.00 0.01 0.00 53 1014.1
20260903183517 93 180 2.0 9.0 0.00 0.01 0.00 56 1014.0
20260903183017 93 180 2.0 6.0 0.00 0.01 0.00 55 1014.2
20260903182537 93 135 2.0 8.0 0.00 0.01 0.00 55 1014.2
20260903182017 93 135 4.0 8.0 0.00 0.01 0.00 55 1014.4
20260903181517 93 113 3.0 8.0 0.00 0.01 0.00 56 1014.3
20260903181018 93 90 3.0 8.0 0.00 0.01 0.00 55 1014.3
20260903180517 93 90 4.0 10.0 0.00 0.01 0.00 55 1014.4
20260903180017 93 203 3.0 8.0 0.00 0.01 0.00 56 1014.5
20260903175517 92 225 3.0 7.0 0.00 0.01 0.00 57 1014.6
20260903175017 93 135 3.0 7.0 0.00 0.01 0.00 56 1014.7
20260903174517 93 158 1.0 9.0 0.00 0.01 0.00 57 1014.6
20260903174016 93 90 3.0 8.0 0.00 0.01 0.00 55 1014.8
20260903173517 92 90 4.0 8.0 0.00 0.01 0.00 57 1015.0
20260903173017 92 158 2.0 7.0 0.00 0.01 0.00 56 1015.0
20260903172517 91 158 2.0 5.0 0.00 0.01 0.00 57 1015.2
20260903172018 91 158 2.0 6.0 0.00 0.01 0.00 58 1015.1
20260903171516 91 90 3.0 6.0 0.00 0.01 0.00 57 1015.1
20260903171016 91 158 3.0 7.0 0.00 0.01 0.00 59 1015.1
20260903170516 91 158 4.0 9.0 0.00 0.01 0.00 59 1015.0
20260903170037 91 180 4.0 9.0 0.00 0.01 0.00 58 1015.0
20260903165516 90 203 3.0 9.0 0.00 0.01 0.00 61 1015.0
20260903165017 90 225 4.0 8.0 0.00 0.01 0.00 61 1014.8
20260903164517 89 203 4.0 10.0 0.00 0.01 0.00 62 1014.9
20260903164016 89 203 5.0 9.0 0.00 0.01 0.00 62 1014.9
20260903163536 88 180 4.0 9.0 0.00 0.01 0.00 62 1015.0
20260903163016 88 203 5.0 12.0 0.00 0.01 0.00 62 1014.9
20260903162516 88 158 5.0 12.0 0.00 0.01 0.00 62 1014.8
20260903162038 88 203 4.0 9.0 0.00 0.01 0.00 63 1014.8
20260903161516 88 225 5.0 10.0 0.00 0.01 0.00 64 1014.8
20260903161017 88 248 5.0 11.0 0.00 0.01 0.00 64 1014.8
20260903160517 88 225 7.0 15.0 0.00 0.01 0.00 65 1014.8
20260903160016 88 225 5.0 14.0 0.00 0.01 0.00 64 1014.8
20260903155517 87 203 4.0 9.0 0.00 0.01 0.00 66 1014.7
20260903155016 87 158 5.0 11.0 0.00 0.01 0.00 67 1014.9
20260903154516 87 225 6.0 11.0 0.00 0.01 0.00 66 1014.8
20260903154016 87 225 4.0 12.0 0.00 0.01 0.00 67 1014.9
20260903153516 87 225 4.0 9.0 0.00 0.01 0.00 67 1014.9
20260903153017 87 225 5.0 13.0 0.00 0.01 0.00 67 1014.8
20260903152537 87 225 5.0 11.0 0.00 0.01 0.00 67 1014.9
20260903152016 87 203 4.0 12.0 0.00 0.01 0.00 68 1014.9
20260903151517 86 225 4.0 12.0 0.00 0.01 0.00 68 1014.7
20260903151016 86 225 2.0 7.0 0.00 0.01 0.00 70 1014.7
20260903150517 85 225 4.0 10.0 0.00 0.01 0.00 71 1014.6
20260903150016 85 225 6.0 13.0 0.00 0.01 0.00 71 1014.7
20260903145517 85 225 6.0 12.0 0.00 0.01 0.00 72 1014.8
20260903145016 85 225 6.0 16.0 0.00 0.01 0.00 71 1014.7
20260903144516 85 225 8.0 16.0 0.00 0.01 0.00 72 1014.7
20260903144017 85 225 6.0 15.0 0.00 0.01 0.00 71 1014.7
20260903143516 85 248 6.0 14.0 0.00 0.01 0.00 72 1014.6
20260903143016 85 248 6.0 14.0 0.00 0.01 0.00 72 1014.6
20260903142516 85 225 5.0 12.0 0.00 0.01 0.00 73 1014.6
20260903142037 85 203 6.0 15.0 0.00 0.01 0.00 74 1014.6
20260903141518 84 225 5.0 13.0 0.00 0.01 0.00 74 1014.6
20260903141036 84 225 8.0 17.0 0.00 0.01 0.00 76 1014.7
20260903140516 83 203 5.0 13.0 0.00 0.01 0.00 77 1014.7
20260903140016 83 225 6.0 16.0 0.00 0.01 0.00 77 1014.8
20260903135516 83 225 5.0 16.0 0.00 0.01 0.00 79 1014.7
20260903135016 82 225 4.0 13.0 0.00 0.01 0.00 79 1014.7
20260903134516 82 225 5.0 13.0 0.00 0.01 0.00 80 1014.7
20260903134016 82 225 5.0 11.0 0.00 0.01 0.00 81 1014.6
20260903133539 81 203 6.0 14.0 0.00 0.01 0.00 81 1014.8
20260903133016 81 203 5.0 14.0 0.00 0.01 0.00 82 1014.9
20260903132516 81 225 5.0 11.0 0.00 0.01 0.00 82 1014.9
20260903132016 81 225 5.0 9.0 0.00 0.01 0.00 82 1014.8
20260903131516 81 225 4.0 9.0 0.00 0.01 0.00 82 1014.8
20260903131016 81 203 4.0 11.0 0.00 0.01 0.00 83 1014.8
20260903130516 80 203 5.0 11.0 0.00 0.01 0.00 83 1014.8
20260903130036 80 180 5.0 13.0 0.00 0.01 0.00 83 1014.7
20260903125516 80 203 4.0 12.0 0.00 0.01 0.00 83 1014.7
20260903125016 80 203 3.0 8.0 0.00 0.01 0.00 83 1014.6
20260903124516 80 225 5.0 11.0 0.00 0.01 0.00 84 1014.5
20260903124016 80 225 4.0 9.0 0.00 0.01 0.00 84 1014.5
20260903123516 80 203 4.0 11.0 0.00 0.01 0.00 84 1014.5
20260903123016 80 203 5.0 13.0 0.00 0.01 0.00 84 1014.3
20260903122516 80 180 3.0 7.0 0.00 0.01 0.00 84 1014.3
20260903122016 80 203 4.0 16.0 0.00 0.01 0.00 84 1014.3
20260903121516 80 225 4.0 10.0 0.00 0.01 0.00 84 1014.3
20260903121017 80 180 4.0 11.0 0.00 0.01 0.00 84 1014.3
20260903120516 80 203 3.0 11.0 0.00 0.01 0.00 84 1014.4
20260903120016 80 180 5.0 11.0 0.00 0.01 0.00 84 1014.2
20260903115516 80 203 4.0 12.0 0.00 0.01 0.00 84 1014.2
20260903115016 80 203 5.0 13.0 0.00 0.01 0.00 83 1014.1
20260903114516 80 180 4.0 11.0 0.00 0.01 0.00 83 1014.0
20260903114057 80 203 4.0 16.0 0.00 0.01 0.00 83 1014.0
20260903113516 80 203 5.0 11.0 0.00 0.01 0.00 83 1014.0
20260903113016 80 203 5.0 11.0 0.00 0.01 0.00 83 1014.1
20260903112516 81 225 5.0 11.0 0.00 0.01 0.00 83 1014.3
20260903112016 80 203 4.0 11.0 0.00 0.01 0.00 83 1014.2
20260903111516 80 225 4.0 12.0 0.00 0.01 0.00 83 1014.2
20260903111017 80 225 5.0 10.0 0.00 0.01 0.00 83 1014.0
20260903110516 80 203 5.0 10.0 0.00 0.01 0.00 83 1014.0
20260903110016 80 203 4.0 9.0 0.00 0.01 0.00 83 1014.0
20260903105516 80 180 4.0 10.0 0.00 0.01 0.00 83 1014.0
20260903105016 80 180 4.0 13.0 0.00 0.01 0.00 84 1013.8
20260903104516 80 203 6.0 15.0 0.00 0.01 0.00 83 1014.1
20260903104036 80 203 4.0 10.0 0.00 0.01 0.00 83 1013.9
20260903103516 80 225 6.0 14.0 0.00 0.01 0.00 83 1014.0
20260903103016 80 203 5.0 13.0 0.00 0.01 0.00 83 1013.9
20260903102516 80 203 4.0 11.0 0.00 0.01 0.00 83 1013.8
20260903102016 80 203 4.0 11.0 0.00 0.01 0.00 83 1013.9
20260903101516 80 180 4.0 12.0 0.00 0.01 0.00 83 1013.9
20260903101016 80 225 5.0 13.0 0.00 0.01 0.00 83 1014.0
20260903100518 80 203 4.0 12.0 0.00 0.01 0.00 82 1014.0
20260903100016 80 203 5.0 10.0 0.00 0.01 0.00 82 1013.9
20260903095516 80 203 5.0 14.0 0.00 0.01 0.00 82 1014.0
20260903095016 80 203 4.0 11.0 0.00 0.01 0.00 82 1013.9
20260903094516 80 203 5.0 10.0 0.00 0.01 0.00 82 1014.0
20260903094016 80 203 5.0 16.0 0.00 0.01 0.00 82 1014.1
20260903093536 80 225 5.0 11.0 0.00 0.01 0.00 82 1014.1
20260903093016 81 203 4.0 11.0 0.00 0.01 0.00 82 1014.2
20260903092516 81 225 4.0 10.0 0.00 0.01 0.00 82 1014.3
20260903092016 81 203 5.0 11.0 0.00 0.01 0.00 81 1014.3
20260903091516 81 180 5.0 12.0 0.00 0.01 0.00 81 1014.3
20260903091016 81 203 5.0 13.0 0.00 0.01 0.00 81 1014.3
20260903090516 81 225 5.0 11.0 0.00 0.01 0.00 81 1014.3
20260903090016 81 203 4.0 9.0 0.00 0.01 0.00 81 1014.4
20260903085515 81 203 4.0 11.0 0.00 0.01 0.00 80 1014.3
20260903085056 81 180 3.0 9.0 0.00 0.01 0.00 80 1014.3
20260903084515 81 225 5.0 9.0 0.00 0.01 0.00 80 1014.3
20260903084016 81 180 5.0 12.0 0.00 0.01 0.00 80 1014.3
20260903083516 81 203 5.0 12.0 0.00 0.01 0.00 80 1014.4
20260903083016 81 203 4.0 10.0 0.00 0.01 0.00 80 1014.3
20260903082538 81 203 6.0 12.0 0.00 0.01 0.00 80 1014.2
20260903082015 81 203 4.0 9.0 0.00 0.01 0.00 80 1014.4
20260903081536 81 180 3.0 9.0 0.00 0.01 0.00 80 1014.4
20260903081018 81 203 3.0 7.0 0.00 0.01 0.00 80 1014.4
20260903080517 81 180 4.0 10.0 0.00 0.01 0.00 79 1014.3
20260903080036 81 203 4.0 12.0 0.00 0.01 0.00 79 1014.4
20260903075516 81 203 5.0 11.0 0.00 0.01 0.00 79 1014.5
20260903075016 81 180 4.0 10.0 0.00 0.01 0.00 79 1014.5
20260903074515 81 203 4.0 11.0 0.00 0.01 0.00 78 1014.5
20260903074016 81 203 3.0 9.0 0.00 0.01 0.00 78 1014.5
20260903073515 81 203 5.0 12.0 0.00 0.01 0.00 77 1014.5
20260903073016 81 203 4.0 10.0 0.00 0.01 0.00 77 1014.6
20260903072515 81 158 4.0 11.0 0.00 0.01 0.00 76 1014.6
20260903072016 81 180 4.0 11.0 0.00 0.01 0.00 76 1014.7
20260903071516 81 180 5.0 11.0 0.00 0.01 0.00 76 1014.7
20260903071016 81 225 3.0 9.0 0.00 0.01 0.00 75 1014.8
20260903070516 81 203 4.0 9.0 0.00 0.01 0.00 75 1014.7
20260903070015 81 203 3.0 8.0 0.00 0.01 0.00 75 1014.7
20260903065535 81 203 4.0 11.0 0.00 0.01 0.00 75 1014.7
20260903065015 81 180 4.0 14.0 0.00 0.01 0.00 74 1014.6
20260903064516 81 203 4.0 10.0 0.00 0.01 0.00 75 1014.7
20260903064015 81 203 3.0 11.0 0.00 0.01 0.00 75 1014.8
20260903063515 81 180 4.0 9.0 0.00 0.01 0.00 75 1014.8
20260903063015 81 158 3.0 10.0 0.00 0.01 0.00 75 1014.8
20260903062515 81 203 4.0 10.0 0.00 0.01 0.00 76 1014.8
20260903062015 81 180 4.0 10.0 0.00 0.01 0.00 76 1014.9
20260903061535 81 180 3.0 9.0 0.00 0.01 0.00 76 1014.7
20260903061015 81 180 2.0 9.0 0.00 0.01 0.00 76 1014.7
20260903060516 81 158 3.0 9.0 0.00 0.01 0.00 77 1014.9
20260903060015 81 158 4.0 11.0 0.00 0.01 0.00 77 1014.9
20260903055515 81 158 2.0 10.0 0.00 0.01 0.00 77 1014.9
20260903055015 81 158 3.0 10.0 0.00 0.01 0.00 77 1015.0
20260903054535 81 135 3.0 7.0 0.00 0.01 0.00 77 1015.2
20260903054016 81 158 3.0 9.0 0.00 0.01 0.00 77 1014.9
20260903053515 81 135 4.0 11.0 0.00 0.01 0.00 76 1014.7
20260903053015 81 135 4.0 10.0 0.00 0.01 0.00 76 1014.8
20260903052515 81 158 4.0 11.0 0.00 0.01 0.00 76 1014.8
20260903052015 81 135 5.0 11.0 0.00 0.01 0.00 76 1014.9
20260903051535 81 158 3.0 7.0 0.00 0.01 0.00 75 1015.0
20260903051015 82 135 3.0 7.0 0.00 0.01 0.00 74 1014.9
20260903050515 82 135 2.0 7.0 0.00 0.01 0.00 74 1014.9
20260903050016 82 135 2.0 8.0 0.00 0.01 0.01 73 1014.9
20260903045516 82 135 4.0 8.0 0.00 0.01 0.01 73 1014.8
20260903045036 82 113 3.0 10.0 0.00 0.01 0.01 73 1014.7
20260903044516 82 135 2.0 5.0 0.00 0.01 0.01 72 1014.7
20260903044016 82 158 2.0 6.0 0.00 0.01 0.01 72 1014.8
20260903043516 83 158 2.0 6.0 0.00 0.01 0.01 71 1014.7
20260903043016 83 90 4.0 8.0 0.00 0.01 0.01 70 1014.7
20260903042516 83 135 3.0 8.0 0.00 0.01 0.01 70 1014.7
20260903042016 83 113 3.0 5.0 0.00 0.01 0.01 69 1014.7
20260903041516 83 90 4.0 12.0 0.00 0.01 0.01 69 1014.7
20260903041016 84 135 4.0 12.0 0.00 0.01 0.01 68 1014.7
20260903040516 84 135 3.0 8.0 0.00 0.01 0.01 67 1014.9
20260903040016 84 90 4.0 10.0 0.00 0.01 0.01 66 1014.8
20260903035516 85 113 4.0 8.0 0.00 0.01 0.01 66 1014.8
20260903035016 85 135 6.0 12.0 0.00 0.01 0.01 65 1015.0
20260903034516 85 135 5.0 11.0 0.00 0.01 0.01 64 1015.0
20260903034016 85 90 8.0 18.0 0.00 0.01 0.01 63 1015.1
20260903033516 86 90 6.0 16.0 0.00 0.01 0.01 63 1014.9
20260903033016 86 90 4.0 12.0 0.00 0.01 0.01 62 1014.9
20260903032516 86 90 6.0 16.0 0.00 0.01 0.01 62 1014.6
20260903032016 86 90 5.0 11.0 0.00 0.01 0.01 61 1014.4
20260903031516 86 90 6.0 15.0 0.00 0.01 0.01 60 1014.4
20260903031036 86 90 5.0 12.0 0.00 0.01 0.01 59 1014.3
20260903030516 87 90 6.0 10.0 0.00 0.01 0.01 58 1014.2
20260903030016 87 90 6.0 11.0 0.00 0.01 0.01 58 1014.0
20260903025516 87 90 6.0 15.0 0.00 0.01 0.01 57 1013.9
20260903025016 87 90 6.0 11.0 0.00 0.01 0.01 57 1013.8
20260903024516 88 90 5.0 9.0 0.00 0.01 0.01 56 1013.7
20260903024016 88 90 4.0 10.0 0.00 0.01 0.01 56 1013.6
20260903023516 88 90 4.0 11.0 0.00 0.01 0.01 56 1013.5
20260903023036 87 135 2.0 4.0 0.00 0.01 0.01 57 1013.3
20260903022516 87 0.0 1.0 0.00 0.01 0.01 58 1013.1
20260903022016 87 0.0 2.0 0.00 0.01 0.01 57 1013.1
20260903021516 88 0.0 2.0 0.00 0.01 0.01 57 1013.1
20260903021016 88 135 1.0 3.0 0.00 0.01 0.01 56 1012.9
20260903020515 88 135 1.0 3.0 0.00 0.01 0.01 56 1012.9
20260903020016 88 135 1.0 3.0 0.00 0.01 0.01 56 1012.7
20260903015517 89 135 2.0 7.0 0.00 0.01 0.01 56 1012.8
20260903015016 89 135 2.0 4.0 0.00 0.01 0.01 55 1012.6
20260903014515 89 135 2.0 5.0 0.00 0.01 0.01 55 1012.6
20260903014016 89 135 2.0 5.0 0.00 0.01 0.01 55 1012.5
20260903013516 89 135 2.0 5.0 0.00 0.01 0.01 55 1012.5
20260903013016 89 135 3.0 6.0 0.00 0.01 0.01 54 1012.5
20260903012515 89 135 2.0 5.0 0.00 0.01 0.01 53 1012.5
20260903012016 89 135 2.0 7.0 0.00 0.01 0.01 52 1012.6
20260903011516 89 135 3.0 5.0 0.00 0.01 0.01 52 1012.4
20260903011036 89 158 3.0 6.0 0.00 0.01 0.01 53 1012.4
20260903010515 89 135 2.0 4.0 0.00 0.01 0.01 53 1012.4
20260903010016 90 135 1.0 3.0 0.01 0.01 0.01 53 1012.4
20260903005515 90 135 2.0 4.0 0.01 0.01 0.01 53 1012.4
20260903005016 90 135 2.0 4.0 0.01 0.01 0.01 54 1012.4
20260903004516 90 158 3.0 5.0 0.01 0.01 0.01 54 1012.4
20260903004015 90 158 2.0 5.0 0.01 0.01 0.01 54 1012.3
20260903003516 89 158 2.0 4.0 0.01 0.01 0.01 55 1012.2
20260903003016 89 158 2.0 6.0 0.01 0.01 0.01 57 1012.4
20260903002535 89 180 2.0 7.0 0.01 0.01 0.01 58 1012.4
20260903002015 88 180 2.0 4.0 0.01 0.01 0.01 61 1012.3
20260903001516 88 0.0 1.0 0.01 0.01 0.01 63 1012.1
20260903001015 88 180 1.0 3.0 0.01 0.01 0.01 63 1012.0
20260903000515 87 0.0 2.0 0.01 0.01 0.01 63 1012.2
20260903000036 86 180 1.0 2.0 0.00 0.00 0.00 63 1012.0
20260902235515 86 180 1.0 3.0 0.00 0.00 0.00 67 1012.0
20260902235016 86 180 2.0 4.0 0.00 0.00 0.00 66 1012.0
20260902234535 87 248 3.0 6.0 0.00 0.00 0.00 66 1012.2
20260902234015 88 293 2.0 8.0 0.00 0.00 0.00 61 1012.3
20260902233515 87 338 2.0 4.0 0.00 0.00 0.00 58 1012.3
20260902233035 89 338 4.0 7.0 0.00 0.00 0.00 59 1012.3
20260902232515 89 315 4.0 9.0 0.00 0.00 0.00 58 1012.3
20260902232016 91 315 3.0 9.0 0.00 0.00 0.00 55 1012.5
20260902231515 91 293 2.0 5.0 0.00 0.00 0.00 54 1012.5
20260902231016 89 315 4.0 12.0 0.00 0.00 0.00 56 1012.4
20260902230515 90 270 4.0 9.0 0.00 0.00 0.00 53 1012.5
20260902230035 91 293 7.0 17.0 0.00 0.00 0.00 52 1012.5
20260902225515 93 270 5.0 12.0 0.00 0.00 0.00 49 1012.5
20260902225017 93 270 5.0 11.0 0.00 0.00 0.00 48 1012.5
20260902224515 94 270 5.0 12.0 0.00 0.00 0.00 47 1012.4
20260902224015 95 270 3.0 5.0 0.00 0.00 0.00 46 1012.4
20260902223515 96 23 2.0 5.0 0.00 0.00 0.00 46 1012.5
20260902223015 97 315 2.0 5.0 0.00 0.00 0.00 45 1012.5
20260902222515 97 293 2.0 4.0 0.00 0.00 0.00 43 1012.4
20260902222015 97 293 1.0 3.0 0.00 0.00 0.00 43 1012.3
20260902221515 97 293 1.0 2.0 0.00 0.00 0.00 41 1012.4
20260902221015 98 293 1.0 3.0 0.00 0.00 0.00 41 1012.5
20260902220515 98 0.0 2.0 0.00 0.00 0.00 41 1012.4
20260902220015 98 293 1.0 3.0 0.00 0.00 0.00 40 1012.5
20260902215515 98 293 1.0 4.0 0.00 0.00 0.00 41 1012.5
20260902215015 99 293 1.0 3.0 0.00 0.00 0.00 40 1012.7
20260902214515 99 293 2.0 5.0 0.00 0.00 0.00 41 1012.6
20260902214015 100 68 2.0 5.0 0.00 0.00 0.00 39 1012.6
20260902213515 101 45 4.0 8.0 0.00 0.00 0.00 38 1012.7
20260902213015 101 315 2.0 6.0 0.00 0.00 0.00 38 1012.7
20260902212515 101 225 2.0 4.0 0.00 0.00 0.00 37 1012.7